CW0775 Weather Reports


time (UTC)temp
F
wind
direction
speed
knots
gust
knots
rain 1hr
in
rain 24hr
in
rain mn
in
humidity
%
barometer
mb
20260903070506 60 184 0.9 1.7 0.00 0.00 0.00 83 1021.0
20260903070006 59 203 0.0 2.6 0.00 0.00 0.00 85 1021.3
20260903064005 58 253 0.0 0.0 0.00 0.00 0.00 87 1021.3
20260903063506 57 258 0.0 1.7 0.00 0.00 0.00 88 1021.2
20260903063005 56 294 0.0 2.6 0.00 0.00 0.00 89 1021.0
20260903061505 56 290 0.0 1.7 0.00 0.00 0.00 90 1021.3
20260903061006 56 257 0.9 2.6 0.00 0.00 0.00 89 1021.3
20260903060506 56 276 0.0 0.0 0.00 0.00 0.00 89 1021.3
20260903060005 55 271 0.0 0.0 0.00 0.00 0.00 90 1021.3
20260903054506 54 279 0.0 0.0 0.00 0.00 0.00 91 1021.5
20260903054005 54 276 0.0 0.0 0.00 0.00 0.00 92 1021.3
20260903053506 54 273 0.0 0.0 0.00 0.00 0.00 92 1021.0
20260903053006 53 273 0.0 0.0 0.00 0.00 0.00 93 1021.0
20260903051505 53 273 0.0 0.0 0.00 0.00 0.00 93 1021.0
20260903051005 52 274 0.0 0.0 0.00 0.00 0.00 93 1021.0
20260903050506 52 273 0.0 0.0 0.00 0.00 0.00 93 1020.7
20260903050005 52 264 0.0 0.0 0.00 0.00 0.00 94 1021.0
20260903044505 52 275 0.0 1.7 0.00 0.00 0.00 94 1021.0
20260903044005 52 262 0.0 0.0 0.00 0.00 0.00 94 1021.0
20260903043505 52 272 0.0 0.0 0.00 0.00 0.00 94 1021.3
20260903043005 52 273 0.0 0.0 0.00 0.00 0.00 95 1021.3
20260903041505 52 272 0.0 0.0 0.00 0.00 0.00 95 1021.2
20260903041005 52 272 0.0 0.0 0.00 0.00 0.00 95 1021.0
20260903040507 51 272 0.0 0.0 0.00 0.00 0.00 95 1021.0
20260903040008 51 272 0.0 0.0 0.00 0.00 0.00 95 1020.8
20260903034506 50 272 0.0 0.0 0.00 0.00 0.00 94 1020.7
20260903034005 51 272 0.0 0.0 0.00 0.00 0.00 94 1020.7
20260903033505 51 272 0.0 0.0 0.00 0.00 0.00 94 1020.7
20260903033005 51 272 0.0 1.7 0.00 0.00 0.00 94 1021.0
20260903031510 51 271 0.0 0.0 0.00 0.00 0.00 94 1021.0
20260903030506 51 271 0.0 0.0 0.00 0.00 0.00 94 1021.0
20260903030005 51 271 0.0 0.0 0.00 0.00 0.00 93 1021.0
20260903023505 51 227 0.0 0.0 0.00 0.00 0.00 93 1021.3
20260903023005 51 256 0.0 0.0 0.00 0.00 0.00 93 1021.5
20260903021505 52 246 0.0 1.7 0.00 0.00 0.00 93 1021.3
20260903021005 52 250 0.0 0.0 0.00 0.00 0.00 93 1021.0
20260903020005 52 250 0.0 0.0 0.00 0.00 0.00 92 1021.3
20260903014505 52 256 0.0 0.0 0.00 0.00 0.00 92 1021.2
20260903011005 52 274 0.0 0.0 0.00 0.00 0.00 91 1021.3
20260903010506 53 274 0.0 1.7 0.00 0.00 0.00 91 1021.4
20260903004506 52 273 0.0 0.0 0.00 0.00 0.00 91 1021.5
20260903004005 53 273 0.0 0.0 0.00 0.00 0.00 91 1021.3
20260903003506 53 273 0.9 1.7 0.00 0.00 0.00 90 1021.6
20260903001505 53 277 0.0 0.0 0.00 0.00 0.00 90 1021.6
20260903001005 53 277 0.0 0.0 0.00 0.00 0.00 90 1021.3
20260903000005 53 277 0.0 2.6 0.00 0.00 0.00 90 1021.4
20260902234505 53 277 0.9 1.7 0.00 0.00 0.00 90 1021.3
20260902233004 54 277 0.0 0.0 0.00 0.00 0.00 89 1021.7
20260902231504 54 277 0.0 1.7 0.00 0.00 0.00 88 1021.7
20260902231004 54 277 1.7 2.6 0.00 0.00 0.00 88 1021.7
20260902230505 55 278 0.9 2.6 0.00 0.00 0.00 88 1021.3
20260902230005 55 274 0.0 0.0 0.00 0.00 0.00 88 1021.3
20260902224505 56 274 0.0 0.0 0.00 0.00 0.00 86 1021.7
20260902224005 56 274 0.0 0.0 0.00 0.00 0.00 86 1021.5
20260902223504 57 274 0.0 0.0 0.00 0.00 0.00 85 1021.4
20260902223005 57 275 0.0 1.7 0.00 0.00 0.00 85 1021.7
20260902221505 57 276 0.0 0.0 0.00 0.00 0.00 85 1021.3
20260902220505 57 276 0.0 0.0 0.00 0.00 0.00 85 1021.7
20260902220006 57 276 0.0 1.7 0.00 0.00 0.00 85 1021.3
20260902214505 58 276 0.0 0.0 0.00 0.00 0.00 83 1021.3
20260902213505 58 276 0.0 0.0 0.00 0.00 0.00 82 1021.3
20260902213005 58 276 0.0 0.0 0.00 0.00 0.00 82 1021.3
20260902211505 58 276 0.0 0.0 0.00 0.00 0.00 81 1021.0
20260902210506 59 277 0.0 0.0 0.00 0.00 0.00 80 1021.0
20260902210005 59 277 0.0 1.7 0.00 0.00 0.00 79 1021.3
20260902204505 59 277 0.9 1.7 0.00 0.00 0.00 78 1021.0
20260902203004 60 276 0.0 0.0 0.00 0.00 0.00 77 1021.0
20260902201504 60 276 0.0 0.0 0.00 0.00 0.00 77 1021.3
20260902200505 60 276 0.0 0.0 0.00 0.00 0.00 76 1021.1
20260902200004 61 276 0.0 0.0 0.00 0.00 0.00 75 1021.0
20260902194505 61 278 0.0 1.7 0.00 0.00 0.00 75 1021.0
20260902194005 61 271 0.0 1.7 0.00 0.00 0.00 74 1021.0
20260902193505 61 269 0.0 0.0 0.00 0.00 0.00 73 1021.0
20260902193005 61 269 0.0 1.7 0.00 0.00 0.00 73 1020.7
20260902191504 62 269 0.9 1.7 0.00 0.00 0.00 70 1020.7
20260902191005 61 269 1.7 2.6 0.00 0.00 0.00 72 1020.8
20260902190506 61 272 0.0 0.0 0.00 0.00 0.00 73 1020.9
20260902190005 61 272 0.0 0.0 0.00 0.00 0.00 72 1020.7
20260902184505 62 273 0.0 0.0 0.00 0.00 0.00 71 1020.7
20260902184004 62 273 0.0 0.0 0.00 0.00 0.00 70 1020.4
20260902183504 62 274 0.0 0.0 0.00 0.00 0.00 70 1020.6
20260902183005 63 272 0.0 0.0 0.00 0.00 0.00 69 1020.3
20260902181504 65 269 0.0 0.0 0.00 0.00 0.00 66 1020.3
20260902181005 66 269 0.0 0.0 0.00 0.00 0.00 64 1020.3
20260902180006 68 269 0.0 0.0 0.00 0.00 0.00 60 1020.3
20260902174505 69 262 0.0 0.0 0.00 0.00 0.00 56 1020.0
20260902174004 70 262 0.0 0.0 0.00 0.00 0.00 57 1020.0
20260902173504 70 261 0.0 0.0 0.00 0.00 0.00 55 1020.0
20260902173005 71 261 0.0 2.6 0.00 0.00 0.00 54 1020.0
20260902171504 71 256 0.9 2.6 0.00 0.00 0.00 51 1019.9
20260902171005 71 260 0.0 1.7 0.00 0.00 0.00 52 1019.8
20260902170505 71 278 0.9 2.6 0.00 0.00 0.00 52 1019.7
20260902170005 72 266 1.7 8.7 0.00 0.00 0.00 50 1020.0
20260902164505 73 282 2.6 4.3 0.00 0.00 0.00 50 1020.0
20260902164004 73 264 4.3 8.7 0.00 0.00 0.00 49 1019.6
20260902163004 74 289 1.7 7.0 0.00 0.00 0.00 50 1020.0
20260902161004 74 283 5.2 8.7 0.00 0.00 0.00 50 1019.6
20260902160505 74 282 6.1 8.7 0.00 0.00 0.00 50 1019.6
20260902160007 74 309 0.9 11.3 0.00 0.00 0.00 50 1019.6
20260902154505 74 300 1.7 7.0 0.00 0.00 0.00 48 1019.7
20260902154005 74 279 2.6 12.2 0.00 0.00 0.00 50 1019.9
20260902153505 74 297 2.6 6.1 0.00 0.00 0.00 51 1019.6
20260902153005 74 281 2.6 8.7 0.00 0.00 0.00 51 1020.0
20260902151504 74 284 4.3 8.7 0.00 0.00 0.00 48 1020.0
20260902151004 73 263 1.7 7.0 0.00 0.00 0.00 49 1020.0
20260902150004 74 284 2.6 7.0 0.00 0.00 0.00 51 1020.0
20260902144504 74 263 1.7 11.3 0.00 0.00 0.00 52 1020.2
20260902144004 74 273 6.1 11.3 0.00 0.00 0.00 50 1020.3
20260902143504 75 315 3.5 7.0 0.00 0.00 0.00 49 1020.3
20260902143004 74 286 1.7 11.3 0.00 0.00 0.00 51 1020.3
20260902141005 75 270 5.2 11.3 0.00 0.00 0.00 48 1020.3
20260902140505 75 273 4.3 8.7 0.00 0.00 0.00 49 1020.1
20260902134504 74 251 3.5 12.2 0.00 0.00 0.00 50 1020.0
20260902134004 74 236 6.1 14.8 0.00 0.00 0.00 51 1020.3
20260902133503 74 276 3.5 12.2 0.00 0.00 0.00 52 1020.0
20260902133005 74 242 5.2 18.2 0.00 0.00 0.00 51 1020.3
20260902131504 74 284 3.5 11.3 0.00 0.00 0.00 51 1020.3
20260902131005 75 167 5.2 14.8 0.00 0.00 0.00 51 1020.3
20260902130505 74 265 11.3 15.6 0.00 0.00 0.00 51 1020.3
20260902130004 74 290 6.1 18.2 0.00 0.00 0.00 51 1020.1
20260902124504 74 286 7.8 11.3 0.00 0.00 0.00 52 1020.3
20260902124004 74 299 1.7 8.7 0.00 0.00 0.00 52 1020.0
20260902123504 74 255 3.5 8.7 0.00 0.00 0.00 53 1020.3
20260902123004 74 299 4.3 8.7 0.00 0.00 0.00 53 1020.3
20260902121504 73 294 1.7 14.8 0.00 0.00 0.00 54 1020.3
20260902121004 74 275 7.8 14.8 0.00 0.00 0.00 52 1020.3
20260902120004 74 281 8.7 18.2 0.00 0.00 0.00 54 1020.7
20260902114505 73 290 3.5 7.0 0.00 0.00 0.00 54 1020.4
20260902113505 73 288 6.1 11.3 0.00 0.00 0.00 54 1020.6
20260902111004 73 270 4.3 8.7 0.00 0.00 0.00 54 1020.7
20260902110505 72 289 4.3 13.0 0.00 0.00 0.00 56 1020.7
20260902110007 72 291 8.7 13.0 0.00 0.00 0.00 55 1020.7
20260902104504 73 287 5.2 8.7 0.00 0.00 0.00 54 1021.0
20260902104004 74 294 5.2 8.7 0.00 0.00 0.00 55 1021.0
20260902103503 73 240 1.7 4.3 0.00 0.00 0.00 57 1020.8
20260902103004 72 305 0.9 11.3 0.00 0.00 0.00 58 1021.0
20260902101504 71 273 4.3 14.8 0.00 0.00 0.00 58 1021.0
20260902101005 71 245 2.6 7.0 0.00 0.00 0.00 61 1021.1
20260902094004 70 287 3.5 7.0 0.00 0.00 0.00 63 1021.3
20260902093504 70 282 1.7 7.0 0.00 0.00 0.00 64 1021.3
20260902091506 68 246 0.0 1.7 0.00 0.00 0.00 69 1021.0
20260902091006 68 245 0.9 2.6 0.00 0.00 0.00 70 1021.0
20260902090506 68 215 1.7 4.3 0.00 0.00 0.00 69 1021.0
20260902090006 68 208 1.7 2.6 0.00 0.00 0.00 68 1021.0
20260902084506 70 212 0.9 1.7 0.00 0.00 0.00 69 1021.0
20260902084006 69 279 0.9 2.6 0.00 0.00 0.00 67 1021.3
20260902083505 68 283 0.0 4.3 0.00 0.00 0.00 68 1021.1
20260902083006 66 272 2.6 6.1 0.00 0.00 0.00 72 1021.2
20260902081505 63 236 0.0 2.6 0.00 0.00 0.00 78 1021.1
20260902081005 63 283 0.9 2.6 0.00 0.00 0.00 79 1021.0
20260902080506 63 264 0.0 2.6 0.00 0.00 0.00 78 1021.1
20260902080006 63 220 0.9 4.3 0.00 0.00 0.00 79 1021.3
20260902073506 60 258 0.9 2.6 0.00 0.00 0.00 84 1021.0
20260902073005 61 285 0.9 2.6 0.00 0.00 0.00 83 1021.0
20260902071505 59 273 1.7 4.3 0.00 0.00 0.00 87 1020.7
20260902071005 58 297 1.7 4.3 0.00 0.00 0.00 87 1020.7